This demonstration page uses our WeatherBlox Daily Observations layout. Learn more.

Left ArrowRight Arrow

31.31129, -92.44514

Hourly Observations for July 19, 2022

Temp ( °F °C ) Dew Point ( °F °C ) Humidity (%) Winds ( mph kmh ) Pressure ( in mb ) Visibility ( mi km ) Precip ( " mm )
12:53 am 00:53 Clear 83 28.3 74 23.3 74 74 SSW 7 11 29.96 1015 10 16 0.00 0.00
1:53 am 01:53 Clear 82 27.8 75 23.9 79 79 SSW 7 11 29.95 1014 10 16 0.00 0.00
2:53 am 02:53 Clear 81 27.2 75 23.9 82 82 SSW 6 9 29.94 1014 10 16 0.00 0.00
3:53 am 03:53 Clear 80 26.7 74 23.3 82 82 SW 6 9 29.94 1014 10 16 0.00 0.00
4:53 am 04:53 Clear 80 26.7 75 23.9 85 85 SSW 5 7 29.96 1014 10 16 0.00 0.00
5:53 am 05:53 Clear 79 26.1 75 23.9 88 88 SW 5 7 29.96 1015 10 16 0.00 0.00
6:53 am 06:53 Sunny 79 26.1 75 23.9 88 88 WSW 5 7 29.97 1015 10 16 0.00 0.00
7:53 am 07:53 Sunny 82 27.8 75 23.9 79 79 SW 5 7 29.98 1015 10 16 0.00 0.00
8:53 am 08:53 Sunny 85 29.4 75 23.9 72 72 WSW 13 20 29.98 1015 10 16 0.00 0.00
9:53 am 09:53 Sunny 88 31.1 75 23.9 66 66 SSW 9 15 29.99 1016 10 16 0.00 0.00
10:53 am 10:53 Sunny 91 32.8 74 23.3 57 57 SW 9 15 29.98 1015 10 16 0.00 0.00
11:53 am 11:53 Sunny 93 33.9 72 22.2 50 50 SW 12 19 29.98 1015 10 16 0.00 0.00
12:53 pm 12:53 Sunny 95 35 73 22.8 49 49 SW 13 20 29.96 1014 10 16 0.00 0.00
1:53 pm 13:53 Sunny 97 36.1 71 21.7 43 43 SW 10 17 29.93 1014 10 16 0.00 0.00
2:53 pm 14:53 Sunny 98 36.7 70 21.1 40 40 SW 8 13 29.91 1013 10 16 0.00 0.00
3:53 pm 15:53 Mostly Sunny 99 37.2 72 22.2 42 42 SW 9 15 29.89 1012 10 16 0.00 0.00
4:53 pm 16:53 Mostly Sunny 97 36.1 72 22.2 45 45 SSW 7 11 29.88 1012 10 16 0.00 0.00
5:53 pm 17:53 Sunny 95 35 75 23.9 53 53 SSW 13 20 29.88 1012 10 16 0.00 0.00
6:53 pm 18:53 Sunny 93 33.9 74 23.3 54 54 SSW 14 22 29.88 1012 10 16 0.00 0.00
7:53 pm 19:53 Sunny 91 32.8 74 23.3 57 57 S 12 19 29.88 1012 10 16 0.00 0.00
8:53 pm 20:53 Clear 89 31.7 74 23.3 61 61 SSW 8 13 29.90 1012 10 16 0.00 0.00
9:53 pm 21:53 Clear 87 30.6 74 23.3 65 65 SSW 14 22 29.91 1013 10 16 0.00 0.00
10:53 pm 22:53 Clear 85 29.4 74 23.3 70 70 S 10 17 29.92 1013 10 16 0.00 0.00
11:53 pm 23:53 Clear 84 28.9 75 23.9 74 74 SSW 7 11 29.94 1014 10 16 0.00 0.00

Powered by AerisWeather